SHIELDS 1

Last updated on Sun Dec 14 2025 00:03:50 GMT+0000 (Coordinated Universal Time)

1 43850U 18104B 25347.24772540 .00177227 00000+0 73214-3 0 9991 2 43850 85.0060 263.3539 0008261 103.2962 256.9236 15.85371718390733
UTC large
Height (km)
Speed (km/s)
/
Latitude / Longitude
Inclination (degrees)
Orbital Period (minutes)
Azimuth
Elevation
Range (km)
Doppler Factor

Next 0 passes for location: London (51.5072 / 0.1276)

Sorry there are no passes over London.